Location: Koussan�
(15.2012°N, 12.5548°W)
Time: 04:41:13
(UTC+00:00)

CZ-4B R/B - Visible Passes

Search period start: 09 March 2021 00:00
Search period end: 19 March 2021 00:00
Orbit: 808 x 882 km, 99.1° (Epoch: 08 March)

Date Brightness Start Highest point End Pass type
(mag) Time Alt. Az. Time Alt. Az. Time Alt. Az.
09 Mar 5.8 06:21:44 10° NE 06:25:57 24° E 06:30:09 10° SSE visible
09 Mar 4.4 19:12:32 10° S 19:17:58 51° WSW 19:23:22 10° NNW visible
10 Mar 6.2 06:09:14 10° ENE 06:12:32 17° E 06:15:51 10° SE visible
11 Mar 6.6 05:57:34 10° E 05:59:07 11° E 06:00:40 10° ESE visible
12 Mar 6.7 20:17:44 10° WSW 20:18:23 10° W 20:19:02 10° W visible
13 Mar 6.3 20:01:47 10° SW 20:04:58 15° W 20:08:07 10° WNW visible
14 Mar 5.9 19:47:21 10° SSW 19:51:34 22° W 19:55:45 10° NW visible
15 Mar 5.4 19:33:19 10° SSW 19:38:11 31° W 19:43:00 10° NW visible
16 Mar 5.5 06:28:12 10° NE 06:32:42 28° E 06:37:14 10° SSE visible
16 Mar 4.7 19:19:31 10° S 19:24:48 43° WSW 19:30:00 10° NNW visible
17 Mar 6.1 06:15:31 10° NE 06:19:18 20° E 06:23:07 10° SE visible
18 Mar 6.3 06:03:18 10° ENE 06:05:53 14° E 06:08:29 10° SE visible
